Wind_Speed
28 27 27 27 27 27 27 27 27 27 27 26 26 25 25 25 25 26 26 27 27 28 28 29 29 30 30 30 30 29 29 28 28 28 28 28 28 28 27 27 27 28 28
30 29 29 29 29 29 29 29 29 29 29 28 27 27 26 26 26 26 26 27 27 28 28 28 28 28 29 29 29 30 29 29 29 29 29 29 30 30 30 30 31 31 31
32 32 31 31 31 31 31 31 30 30 30 29 29 28 28 27 27 27 27 27 27 27 28 28 28 28 28 28 29 29 30 30 30 30 30 31 32 32 33 34 34 35 35
35 35 34 34 33 33 33 32 32 31 31 31 30 30 29 29 28 27 27 27 27 27 27 27 28 28 28 28 28 29 30 30 31 31 32 32 33 34 35 36 37 38 38
38 38 38 37 37 36 35 34 34 33 33 32 32 31 31 30 29 28 28 28 28 28 28 28 28 28 29 29 29 29 30 31 31 32 33 33 34 35 36 37 38 39 39
42 42 41 41 40 39 38 37 37 36 35 34 34 33 33 32 31 30 29 29 29 30 30 30 30 30 30 30 30 30 30 31 32 33 33 34 35 36 36 37 38 39 39
46 45 44 43 43 42 42 41 40 39 37 36 36 36 35 33 32 32 31 31 32 32 33 33 33 33 32 32 32 32 32 32 33 34 34 35 36 37 37 37 38 39 40
49 48 48 47 47 46 46 45 44 42 41 40 39 38 37 36 35 35 34 35 35 35 35 36 36 36 36 35 35 35 35 35 35 35 36 37 37 38 38 39 40 41 41
52 52 51 51 51 50 49 48 48 46 44 43 42 41 40 38 38 38 37 38 38 38 38 38 38 39 39 39 39 39 39 38 38 38 39 40 40 41 42 42 43 43 44
55 55 55 54 54 54 52 51 50 50 48 47 45 44 44 43 42 40 40 41 41 41 41 41 41 42 42 43 43 43 42 42 42 42 42 43 43 44 45 46 46 47 48
56 57 57 57 57 56 55 54 53 52 51 50 49 48 47 46 45 44 43 44 43 43 44 44 45 45 46 46 47 46 46 46 46 46 46 46 47 47 48 49 50 51 52
57 58 59 60 60 59 58 57 56 55 54 53 52 51 50 50 48 47 46 46 46 46 46 47 47 48 49 50 50 49 49 50 50 50 50 50 51 51 52 53 54 55 57
59 60 60 61 62 62 62 61 59 58 58 57 55 54 53 52 50 49 48 48 47 47 48 49 50 51 52 53 52 52 52 52 53 53 53 54 55 55 56 57 59 60 61
62 63 63 63 63 63 63 63 62 61 60 59 58 57 55 54 53 52 51 50 49 49 50 51 51 52 54 55 55 54 54 55 56 56 57 58 59 60 61 62 63 64 66
66 66 67 66 65 65 65 64 64 63 62 61 60 59 58 56 55 53 53 52 51 51 52 52 53 54 56 56 56 56 56 57 59 60 61 62 63 64 65 66 67 68 69
69 69 69 69 68 66 66 65 64 64 63 63 62 60 59 58 56 55 54 53 54 54 54 54 56 57 58 59 59 59 60 60 61 63 64 65 66 67 69 70 70 71 72
69 69 69 69 68 67 66 65 64 64 63 63 63 62 60 59 58 57 57 56 56 57 58 58 59 59 60 62 62 63 62 63 65 66 67 68 69 70 71 72 73 74 75
64 64 64 64 63 62 62 62 62 63 62 62 61 61 60 60 59 59 59 58 58 59 60 61 61 63 64 64 65 65 66 67 68 68 69 70 71 72 73 74 75 76 76
54 55 56 56 56 56 56 56 56 57 58 59 59 59 59 60 59 60 58 58 58 59 61 62 63 64 66 67 68 68 68 68 69 70 71 72 73 74 75 76 77 77 78
42 44 46 47 49 49 50 49 50 51 52 54 55 57 57 58 58 58 58 58 59 61 62 64 65 66 67 69 69 69 69 70 70 71 73 74 76 76 77 78 79 78 78
31 33 36 39 40 41 42 43 44 44 45 46 48 50 52 53 54 55 56 57 59 61 62 64 66 67 68 69 70 69 70 70 72 74 76 77 78 78 79 79 78 76 74
22 25 27 29 30 31 33 35 37 38 39 41 43 45 47 48 50 52 54 56 58 61 62 64 65 66 68 69 69 70 71 73 74 76 77 78 78 77 77 74 72 69 67
16 18 19 20 22 23 25 26 28 30 32 35 37 39 42 45 47 50 53 56 59 60 61 62 63 65 66 68 70 72 74 75 76 77 77 75 74 71 68 65 64 62 60
8 9 10 12 14 16 17 20 22 24 27 29 32 37 39 43 46 49 51 53 54 56 58 60 62 65 67 70 72 74 75 75 75 76 75 70 65 61 58 57 57 56 55
6 4 4 6 8 11 14 16 19 22 25 29 32 35 38 41 43 46 48 50 52 55 58 61 64 67 69 71 72 72 72 72 69 67 65 59 55 52 50 51 51 51 50
8 5 3 3 6 8 11 14 17 20 23 26 29 32 35 37 40 43 45 49 52 56 60 63 65 67 68 68 68 67 66 62 58 55 53 49 47 46 42 42 45 46 46
Wind_Direction
270 271 272 272 271 271 271 272 272 273 275 276 278 279 281 283 284 286 288 289 291 292 293 293 293 293 294 294 293 292 290 289 286 284 281 279 278 277 276 276 276 275 274
269 270 271 271 271 271 271 271 271 272 273 274 275 277 279 281 283 285 287 289 290 291 293 294 295 295 295 295 293 291 289 288 286 284 282 280 278 277 276 276 276 276 275
268 269 270 270 270 270 270 270 271 271 271 272 273 275 276 278 280 283 286 287 289 291 293 295 296 296 296 295 293 291 289 288 286 284 282 281 279 278 277 277 276 276 276
268 268 268 268 268 268 269 270 270 270 270 271 272 273 274 275 277 281 283 285 288 290 292 294 296 297 297 295 293 291 289 288 286 285 283 282 280 280 279 278 277 276 275
267 266 266 266 267 267 268 269 269 269 269 270 271 271 272 273 276 278 281 284 286 289 291 293 294 296 296 295 293 291 289 288 287 285 284 283 282 282 281 280 279 278 277
265 264 264 265 266 267 267 267 267 268 269 270 270 270 271 272 275 277 279 281 284 287 289 291 292 293 294 293 291 290 288 287 286 285 284 283 283 283 282 282 281 280 279
264 264 264 264 265 266 266 266 266 267 268 269 270 270 271 273 274 275 277 280 282 285 287 289 290 291 291 291 290 289 288 287 285 284 283 283 282 282 282 283 283 283 282
267 266 265 264 263 264 264 265 265 266 266 268 269 270 272 273 274 275 277 279 281 283 285 287 288 288 289 288 288 288 287 287 286 285 284 283 282 282 282 282 283 283 283
267 265 264 263 262 263 263 264 265 265 266 267 268 270 272 272 273 275 277 279 280 282 283 285 286 286 287 287 286 286 286 286 285 285 284 283 283 283 283 283 283 283 283
266 265 264 263 262 262 262 263 263 264 265 266 267 269 270 271 273 274 276 277 279 280 282 283 284 285 285 285 285 285 284 284 285 285 285 284 284 283 283 283 284 284 284
265 264 263 262 261 260 260 260 261 262 264 265 266 268 270 272 272 273 274 275 276 278 280 282 283 284 284 284 284 284 284 284 284 285 284 284 284 283 284 284 284 284 285
263 262 261 260 260 259 258 258 258 259 261 263 265 267 269 271 272 272 274 274 276 278 280 281 283 283 284 284 284 283 283 283 285 285 285 285 284 284 284 284 285 285 285
263 262 260 259 258 258 257 257 257 257 259 261 263 265 267 269 271 272 273 275 276 278 280 281 282 282 283 283 283 283 282 283 284 285 285 285 285 285 285 286 286 286 286
264 262 260 258 257 256 256 256 256 257 257 259 261 263 265 268 270 271 273 274 276 278 280 281 281 282 283 284 283 282 282 284 284 285 285 286 286 287 287 287 287 287 286
266 263 261 258 256 255 255 255 256 257 257 259 260 262 264 266 268 270 273 274 277 278 279 280 281 282 283 284 283 282 284 284 285 286 286 286 286 287 288 287 287 286 286
267 263 261 259 257 255 254 254 255 256 257 259 260 262 264 266 268 270 272 275 277 278 279 280 281 282 283 283 284 285 285 285 286 286 286 287 287 287 287 287 287 286 286
266 263 261 259 258 256 254 253 253 254 255 257 259 261 263 265 268 270 272 274 277 278 279 279 280 282 283 284 285 286 286 287 287 287 287 287 288 288 287 287 287 287 286
266 263 261 259 258 256 255 254 253 252 253 255 258 260 262 266 267 270 272 275 276 277 279 280 281 283 284 285 286 287 288 288 288 288 288 289 289 289 289 288 288 288 287
265 262 260 258 256 255 254 254 253 252 253 254 256 259 262 265 268 270 272 274 276 277 279 280 282 283 285 286 287 288 289 290 290 290 290 291 290 290 290 290 290 289 288
265 261 258 258 256 254 253 252 252 252 252 253 255 259 262 265 267 270 272 273 275 276 279 280 282 284 285 286 288 289 290 291 291 292 292 292 292 292 291 291 291 290 289
266 262 259 257 255 253 251 250 250 250 251 253 256 259 261 264 267 270 272 274 275 277 279 280 282 284 286 287 289 290 291 292 292 292 292 293 293 293 292 292 291 290 290
270 264 259 254 251 249 248 248 248 248 250 253 256 259 263 266 269 270 273 274 276 277 279 281 284 286 288 290 291 292 293 293 292 292 293 293 293 293 293 292 291 291 291
278 266 257 250 247 245 245 246 247 249 252 256 259 262 264 266 269 272 274 275 276 279 283 285 287 290 291 292 293 293 293 293 293 292 293 293 293 293 293 292 292 292 293
296 273 255 247 244 242 241 243 245 248 252 256 260 263 266 269 271 274 278 280 283 285 288 290 292 293 294 294 294 294 293 293 293 293 293 294 293 293 293 293 293 294 295
341 315 274 247 241 241 243 244 247 252 258 261 265 267 270 273 276 280 284 287 290 292 293 294 295 295 295 295 295 294 294 293 293 293 294 294 293 293 294 294 294 295 296
10 4 348 295 267 259 257 258 261 263 267 270 273 276 279 281 284 288 291 293 294 295 296 297 297 297 296 296 295 294 294 294 294 293 294 295 294 294 293 293 295 296 297
Height
5834 5834 5834 5833 5833 5832 5832 5831 5831 5830 5830 5829 5829 5828 5827 5827 5826 5825 5824 5822 5821 5820 5818 5817 5815 5814 5812 5811 5809 5808 5807 5806 5805 5804 5804 5803 5803 5802 5802 5802 5802 5802 5802
5828 5828 5828 5828 5827 5826 5826 5826 5825 5825 5824 5824 5823 5823 5822 5822 5821 5819 5818 5817 5816 5814 5813 5811 5809 5808 5806 5805 5804 5802 5801 5800 5799 5798 5798 5797 5797 5796 5796 5796 5796 5795 5796
5822 5822 5822 5822 5821 5820 5820 5819 5819 5818 5818 5818 5817 5817 5816 5816 5815 5814 5812 5811 5810 5809 5807 5805 5804 5802 5800 5799 5798 5796 5795 5794 5793 5792 5791 5791 5790 5790 5789 5789 5789 5789 5789
5816 5815 5815 5815 5814 5814 5813 5813 5812 5812 5811 5811 5811 5811 5810 5809 5809 5808 5806 5805 5804 5803 5801 5800 5798 5796 5795 5793 5792 5791 5789 5788 5787 5785 5784 5784 5783 5782 5782 5781 5781 5780 5780
5808 5808 5807 5807 5807 5807 5806 5806 5805 5805 5804 5804 5804 5804 5803 5803 5802 5801 5800 5799 5798 5796 5795 5793 5792 5790 5789 5787 5786 5784 5783 5781 5780 5779 5777 5776 5775 5774 5773 5773 5772 5772 5771
5799 5799 5799 5799 5799 5799 5799 5798 5798 5797 5797 5797 5797 5796 5796 5796 5795 5794 5793 5792 5791 5790 5788 5787 5785 5783 5782 5780 5779 5778 5776 5775 5773 5771 5770 5769 5767 5766 5765 5764 5763 5763 5762
5790 5790 5791 5791 5790 5790 5790 5789 5789 5789 5789 5789 5789 5788 5788 5788 5788 5787 5786 5785 5784 5782 5781 5779 5778 5776 5775 5773 5772 5770 5768 5767 5765 5764 5762 5761 5759 5758 5756 5755 5754 5753 5752
5781 5781 5781 5781 5781 5781 5780 5780 5780 5780 5781 5781 5780 5780 5780 5781 5780 5779 5778 5777 5776 5774 5773 5771 5770 5768 5767 5765 5763 5762 5760 5758 5756 5755 5753 5752 5750 5749 5747 5746 5745 5744 5743
5769 5770 5770 5770 5770 5770 5770 5770 5771 5771 5771 5771 5771 5771 5772 5772 5771 5771 5770 5768 5767 5766 5764 5763 5761 5759 5758 5756 5754 5753 5751 5749 5747 5745 5743 5742 5740 5739 5738 5736 5735 5733 5732
5757 5757 5758 5758 5758 5759 5759 5760 5760 5760 5760 5761 5761 5761 5762 5762 5762 5761 5760 5759 5758 5756 5755 5753 5751 5750 5748 5746 5744 5743 5740 5738 5736 5735 5733 5731 5729 5728 5726 5725 5723 5721 5720
5745 5745 5745 5745 5745 5746 5747 5748 5748 5749 5749 5750 5750 5750 5750 5751 5750 5750 5750 5749 5747 5746 5745 5743 5741 5739 5737 5735 5733 5732 5729 5727 5725 5723 5721 5719 5717 5716 5714 5712 5710 5708 5706
5732 5732 5731 5731 5732 5733 5734 5734 5735 5736 5737 5738 5739 5739 5740 5740 5740 5739 5739 5738 5737 5736 5734 5732 5730 5728 5726 5724 5722 5720 5717 5715 5713 5711 5708 5706 5704 5702 5700 5698 5696 5694 5691
5717 5717 5717 5717 5718 5719 5720 5721 5722 5724 5725 5725 5726 5727 5728 5728 5729 5728 5727 5727 5726 5725 5723 5721 5718 5716 5714 5711 5709 5707 5704 5702 5699 5697 5694 5692 5690 5688 5685 5683 5680 5677 5675
5700 5700 5700 5701 5703 5704 5705 5707 5709 5711 5712 5713 5714 5715 5716 5716 5717 5716 5716 5715 5714 5713 5711 5709 5706 5703 5701 5698 5696 5693 5691 5688 5685 5682 5679 5676 5674 5671 5668 5665 5663 5660 5656
5680 5680 5681 5683 5685 5687 5690 5692 5695 5697 5699 5701 5702 5703 5704 5704 5704 5704 5703 5703 5702 5700 5698 5696 5693 5690 5687 5684 5681 5679 5676 5673 5670 5666 5663 5659 5656 5653 5650 5647 5644 5640 5637
5658 5659 5660 5663 5666 5669 5673 5676 5680 5683 5685 5687 5689 5690 5691 5692 5692 5692 5691 5690 5689 5688 5684 5682 5679 5676 5672 5669 5666 5663 5661 5657 5654 5650 5645 5642 5638 5635 5631 5627 5623 5619 5616
5636 5636 5638 5641 5645 5650 5654 5659 5663 5667 5670 5673 5676 5677 5678 5679 5679 5679 5679 5677 5676 5674 5671 5668 5665 5661 5657 5653 5650 5647 5643 5640 5636 5631 5627 5623 5619 5614 5610 5606 5602 5598 5593
5614 5615 5617 5621 5626 5631 5636 5641 5647 5651 5655 5659 5662 5664 5666 5667 5667 5666 5666 5664 5662 5660 5657 5653 5650 5646 5642 5638 5634 5630 5626 5621 5617 5612 5607 5602 5598 5593 5588 5584 5579 5574 5569
5596 5597 5600 5604 5609 5614 5619 5625 5631 5636 5641 5645 5649 5651 5653 5654 5654 5654 5653 5651 5649 5646 5643 5639 5635 5631 5626 5622 5618 5613 5608 5603 5597 5591 5586 5581 5576 5571 5565 5560 5555 5550 5544
5582 5584 5587 5590 5594 5600 5605 5611 5617 5622 5627 5632 5635 5638 5640 5641 5641 5641 5639 5637 5635 5632 5628 5625 5620 5616 5611 5605 5600 5595 5590 5584 5577 5571 5564 5559 5553 5547 5541 5535 5530 5524 5518
5573 5575 5577 5580 5584 5588 5593 5599 5605 5610 5615 5619 5623 5625 5627 5628 5628 5627 5626 5623 5621 5618 5614 5610 5605 5600 5594 5589 5583 5577 5572 5565 5558 5550 5544 5537 5530 5524 5516 5510 5504 5498 5493
5568 5569 5570 5572 5576 5580 5584 5589 5595 5600 5604 5608 5612 5614 5615 5616 5616 5615 5613 5610 5607 5603 5599 5594 5589 5583 5578 5571 5565 5559 5553 5546 5539 5530 5524 5516 5506 5500 5492 5485 5479 5473 5469
5566 5566 5566 5568 5571 5575 5579 5583 5588 5592 5596 5599 5602 5604 5605 5605 5604 5603 5600 5597 5593 5588 5584 5579 5573 5567 5561 5554 5548 5540 5533 5525 5517 5507 5502 5496 5485 5479 5471 5463 5457 5453 5449
5566 5565 5565 5567 5569 5572 5575 5579 5583 5586 5589 5591 5593 5595 5595 5594 5593 5591 5587 5583 5578 5573 5569 5563 5558 5550 5543 5536 5528 5521 5512 5504 5495 5485 5479 5476 5467 5461 5454 5445 5439 5435 5432
5568 5567 5566 5567 5569 5571 5573 5576 5579 5581 5584 5585 5586 5586 5585 5584 5582 5579 5575 5570 5564 5559 5553 5547 5540 5533 5525 5516 5508 5500 5491 5484 5476 5466 5459 5457 5451 5446 5440 5431 5424 5419 5416
5571 5570 5569 5569 5570 5571 5573 5574 5576 5577 5579 5579 5579 5578 5576 5574 5571 5567 5563 5557 5551 5545 5538 5530 5522 5514 5505 5497 5488 5480 5472 5464 5457 5451 5444 5441 5435 5431 5430 5422 5413 5407 5403